Tracking 30995 objects as of 7-Jul-2025
HD Live streaming from Space Station
objects crossing your sky now

FAST

Track FAST now!
10-day predictions
FAST is classified as:


NORAD ID: 24285
Int'l Code: 1996-049A
Perigee: 352.0 km
Apogee: 3,224.7 km
Inclination: 82.9 °
Period: 122.2 minutes
Semi major axis: 8159 km
RCS: 1.3393 m2 (large)
Launch date: August 21, 1996
Source: United States (US)
Launch site: AIR FORCE WESTERN TEST RANGE (AFWTR)

Designed to study Earth's aurora.
Your satellite tracking list
STARLINK-4730
Track 1 satellite(s)




NASA's NSSDC Master Catalog

Two Line Element Set (TLE):
1 24285U 96049A   25187.57183168  .00005748  00000-0  43393-3 0  9990
2 24285  82.9470 233.1179 1760404 107.8943 272.1300 11.77934258191848
Source of the keplerian elements: AFSPC